www.pogodaiklimat.ru

Погода и климат >> Архив погоды >> Узбекистан >> Жаслык


ПОГОДА в Жаслыке

  • Прогноз погоды в Жаслыке
  • Монитор погоды в Жаслыке
  • Климат города

АРХИВ ПОГОДЫ в Жаслыке

Время (UTC), дата Ветер
(напр.,м/с)
 
Видим.   Явления Облачность Т
(С)
Тd
(С)
f
(%)
Тe
(С)
Тes
(С)
Комфортность P
(гПа)
Po
(гПа)
Тmin
(С)
Tmax
(С)
R
(мм)
R24
(мм)
S
(см)
18 15.11 В 4 20 км ясно +0.9 -0.5 90 -4 -4 1029.6 1013.2 +10.5
21 15.11 В 2 2000 м дымка {туман} ясно -0.6 -0.9 98 -5 -5 1029.6 1013.2
00 16.11 В 3 20 км ясно -1.8 -2.1 98 -7 -7 1030.0 1013.5
03 16.11 В 2 20 км 3/0
[Ci sp]
-2.0 -2.6 96 -6 -6 1029.5 1013.0
06 16.11 ЮВ 3 20 км 1/0
[Ci sp]
+4.6 +1.4 80 +1 +3 1028.6 1013.0 -2.1
09 16.11 Ю 4 20 км 8/0
[Ci sp]
+9.6 +0.7 54 +7 +9 1027.3 1011.7
12 16.11 Ю 1 20 км 3/0
[Ci fib]
+10.1 +0.2 50 +10 +11 1026.7 1011.0
15 16.11 ЮВ 1 20 км ясно +5.2 -0.4 67 +4 +4 1027.4 1011.5 +10.8
18 16.11 ЮВ 1 20 км ясно +2.2 -0.9 80 +1 +1 1026.2 1010.5 +10.8
21 16.11 Ю 1 20 км ясно +1.0 -1.3 85 -1 -1 1020.7 1010.8
00 17.11 штиль 0 20 км ясно +0.2 -1.3 90 -1 -1 1026.5 1010.0
03 17.11 штиль 0 20 км 3/0
[Ci sp]
+0.2 -1.4 89 -1 -1 1025.6 1009.3
06 17.11 Ю 2 20 км 9/0
[Ci fib]
+5.2 +0.8 73 +3 +5 1026.0 1010.1 0.0
09 17.11 ЮЗ 1 20 км 1/0
[Ci fib]
+12.5 +2.5 50 +13 +17 1024.5 1008.9
12 17.11 З 2 20 км ясно +13.3 +2.1 47 +13 +13 1023.8 1008.3
15 17.11 СЗ 3 20 км 10/10 600 м
[Sc]
+8.3 +6.5 88 +6 +6 1024.5 1008.7 +14.0
18 17.11 СЗ 10 20 км 10/10 600 м
[Sc]
+4.7 +2.7 87 -2 -2 1025.7 1009.7 +14.0
21 17.11 С 12 20 км 10/10 600 м
[Sc]
+2.0 -2.3 73 -6 -6 1027.4 1011.2
00 18.11 СЗ 3 20 км 10/10 600 м
[Sc]
-1.2 -4.1 81 -6 -6 1029.5 1013.0
03 18.11 СЗ 2 20 км ясно -3.8 -5.3 89 -8 -8 1030.9 1014.3
06 18.11 С 2 20 км ясно +1.7 -2.7 73 -1 +1 1032.6 1016.4 -4.1
09 18.11 СВ 3 20 км ясно +5.7 -3.8 50 +3 +6 1032.8 1016.8
12 18.11 В 3 20 км ясно +6.3 -4.6 46 +4 +4 1033.6 1017.5
15 18.11 В 3 20 км ясно +0.8 -5.3 64 -3 -3 1034.2 1017.8 +6.8
18 18.11 В 4 20 км ясно -2.0 -5.1 79 -8 -8 1034.7 1018.1 +6.8
21 18.11 В 5 20 км ясно -2.8 -4.4 89 -10 -10 1034.1 1017.6
00 19.11 В 3 20 км ясно -4.0 -5.2 91 -9 -9 1034.2 1017.6
03 19.11 В 4 20 км ясно -4.8 -6.1 91 -11 -11 1033.7 1017.1
06 19.11 ЮВ 10 20 км ясно +1.5 -2.9 73 -6 -6 1033.4 1017.2 -4.8
09 19.11 ЮВ 13 20 км ясно +7.0 -6.7 37 +1 +1 1030.9 1015.0
12 19.11 В 12 20 км ясно +7.6 -9.0 30 +3 +3 1029.8 1013.9
15 19.11 В 7 20 км ясно +2.4 -7.1 49 -3 -3 1029.5 1013.3 +8.4
18 19.11 В 7 20 км ясно +0.5 -6.1 61 -6 -6 1029.0 1012.6 +8.4
21 19.11 В 7 20 км ясно -1.3 -6.4 68 -8 -8 1028.6 1012.2
00 20.11 В 5 20 км ясно -2.1 -5.6 77 -9 -9 1027.1 1010.7
03 20.11 В 4 20 км ясно -3.7 -7.4 75 -10 -10 1026.8 1010.3
06 20.11 В 5 20 км 3/0
[Ci sp]
+2.5 -4.9 58 -2 -1 1025.1 1009.5 -3.7
09 20.11 В 5 20 км 1/0
[Ac trans]
+8.5 -3.3 43 +6 +7 1023.5 1007.9
12 20.11 В 5 20 км 3/0
[Ci sp]
+9.6 -5.2 35 +7 +7 1022.6 1007.0
15 20.11 В 1 20 км 1/0
[Ci sp]
+3.9 -4.1 56 +3 +3 1021.4 1005.4 +10.0
18 20.11 В 3 20 км ясно +1.4 -4.5 65 -3 -3 1020.9 1004.8 +10.0
21 20.11 ЮВ 5 20 км 4/0
[Ac trans]
+2.7 -3.9 62 -2 -2 1019.1 1003.0
00 21.11 В 5 20 км 5/0
[Ac trans]
+2.2 -3.1 68 -3 -3 1017.6 1001.6
03 21.11 ЮВ 6 20 км 6/0
[Ac trans Ci fib]
+2.1 -3.2 68 -4 -4 1016.9 1001.9
06 21.11 В 6 20 км 5/0
[Ci sp]
+6.2 -1.6 57 +2 +3 1016.4 1001.6 +1.9
09 21.11 В 7 20 км 3/0
[Ci sp]
+11.9 -0.7 42 +9 +10 1014.6 999.2
12 21.11 В 5 20 км 3/0
[Ci sp]
+13.6 -0.4 38 +12 +12 1012.8 997.5
15 21.11 ЮВ 5 20 км 3/0
[Ci sp]
+8.9 -0.9 50 +6 +6 1013.7 998.0 +13.8
18 21.11 ЮВ 7 20 км ясно +8.4 -2.7 45 +5 +5 1013.4 997.7 +13.8
21 21.11 В 5 20 км ясно +6.6 -3.0 50 +3 +3 1012.0 996.3
00 22.11 В 5 20 км ясно +6.2 -3.0 52 +2 +2 1010.2 994.5
03 22.11 В 6 20 км ясно +3.1 -4.1 59 -2 -2 1009.7 993.9
06 22.11 ЮВ 8 20 км 6/0
[Ci fib]
+8.3 -5.7 37 +4 +5 1010.0 994.4 +3.0
09 22.11 В 7 20 км 6/0
[Ci fib]
+15.3 -5.7 23 +14 +15 1007.8 992.7
12 22.11 ЮВ 3 20 км 10/0
[Ac trans Ci sp]
+14.0 -5.4 26 +13 +14 1006.4 991.2
15 22.11 В 5 20 км 10/0
[Ac und]
+10.3 -5.4 33 +8 +8 1016.5 991.1 +16.8

 

Местоположение метеостанции Жаслык (Каракалпакстан, Узбекистан): широта 43.88 долгота 57.52 высота над уровнем моря 128 м.

В архиве по умолчанию представлена погода в Жаслыке за последнюю неделю. Архивные данные за месяц целиком и за предыдущие месяцы, начиная с января 2011 года, Вы можете получить, выбрав интересующий диапазон дат из раскрывающегося списка и нажав кнопку "Ввод!".

Внимание! Время в таблицах - всемирное. Для получения местного времени необходимо прибавить поправку, которая в Жаслыке равна 5 ч.

Смотрите также архив погоды в соседних городах и на ближайших метеорологических станциях:

Погода в Муйнаке (Каракалпакстан, Узбекистан) (98 км)
Погода в Каракалпакии (Каракалпакстан, Узбекистан) (144 км)
Погода в Кунграде (Каракалпакстан, Узбекистан) (144 км)
Погода в Саме (Мангистауская область, Казахстан) (202 км)
Погода в Чимбае (Каракалпакстан, Узбекистан) (213 км)
Погода в Кенеургенче (Дашогузский велаят, Туркменистан) (219 км)
Погода в Тахтакупыре (Каракалпакстан, Узбекистан) (231 км)
Погода в Нукусе (Каракалпакстан, Узбекистан) (233 км)
Погода в Бейнеу (Мангистауская область, Казахстан) (244 км)
Погода в Шах-Сенеме (Дашогузский велаят, Туркменистан) (274 км)

Пояснения к столбцам:

Ветер - указаны скорость ветра в м/с - средняя за 10 мин, порывы в срок и между сроками (в фигурных скобках) и направление, откуда дует ветер: С - северный, СВ - северо-восточный, В - восточный, ЮВ - юго-восточный, Ю - южный, ЮЗ - юго-западный, З - западный, СЗ - северо-западный.
Видимость - горизонтальная дальность видимости в метрах или километрах. При видимости от 1 до 10 км при отсутствии осадков обычно наблюдается дымка, при ухудшении видимости до 1 км и менее - туман. В сухую погоду видимость может ухудшаться дымом, пылью или мглою.
Явления - указаны атмосферные явления, наблюдавшиеся в срок или в последний час перед сроком; фигурными скобками обозначены явления, наблюдавшиеся между сроками (за 1-3 часа до срока); квадратными скобками обозначены град или гололедные отложения с указанием их диаметра в мм.
Облачность - указаны через наклонную черту общая и нижняя облачность в баллах и высота нижней границы облаков в метрах; квадратными скобками обозначены формы облаков: Ci - перистые, Cs - перисто-слоистые, Cc - перисто-кучевые, Ac - высококучевые, As - высокослоистые, Sc - слоисто-кучевые, Ns - слоисто-дождевые, Cu - кучевые, Cb - кучево-дождевые. Подробнее классификацию облаков см. в Атласе облаков (PDF).
T - Температура воздуха - температура, измеренная на высоте 2 м над землей.
Td - Температура точки росы - температура, при понижении до которой содержащийся в воздухе водяной пар достигнет насыщения.
f - Относительная влажность воздуха - влажноcть воздуха, измеренная на высоте 2 м над землей.
Te - Эффективная температура - температура, которую ощущает одетый по сезону человек в тени. Характеристика душности погоды. При расчете учитывается влияние влажности воздуха и скорости ветра на теплоощущения человека.
Tes - Эффективная температура на солнце - температура, которую ощущает человек, с поправкой на солнечный нагрев. Характеристика знойности погоды. Зависит от высоты солнца над горизонтом, облачности и скорости ветра. Ночью, в пасмурную погоду, а также при ветре 12 м/с и более поправка равна нулю.
P - Атмосферное давление - приведенное к уровню моря атмосферное давление.
Po - Атмосферное давление - измеренное на уровне метеостанции атмосферное давление.
Tmin - Минимальная температура - минимум температуры воздуха на высоте 2 м над землей.
Tmax - Максимальная температура - максимум температуры воздуха на высоте 2 м над землей.
R - Количество осадков - Количество выпавших осадков за период времени, мм. При наведении курсора мыши на число - период времени, за который выпало указанное количество осадков.
R24 - Количество осадков - Количество выпавших осадков за 24 часа, мм.
S - Снежный покров - Высота снежного покрова, см. При наведении курсора мыши на число - состояние снежного покрова и степень покрытия местности в баллах.